Theta_e
297 298 297 297 297 299 301 303 306 307 309 309 309 309 307 305 301 297 297 301 302 301 306 304 301 308 308 311 312 313 313 308 306 313 315 315 315 310 313 315 317 318 317 316 316 315 315 316 317 317 317 317 319 320 321 321 321 322 323 324 324 325 325 325 324 325 324 323 323 323 322 322 322 322
297 297 298 297 298 299 301 302 303 304 306 308 308 308 308 307 304 302 300 300 304 302 301 301 300 295 305 308 311 313 312 304 308 314 315 315 315 308 310 313 315 316 315 316 317 316 315 315 315 315 316 317 318 320 319 319 320 321 322 325 325 325 324 324 323 322 321 322 322 322 322 322 321 320
296 297 297 298 298 299 302 303 303 304 304 308 308 308 308 307 307 305 305 300 298 303 302 299 297 300 301 305 309 311 311 305 309 314 314 314 309 305 309 310 313 314 313 315 315 315 315 314 314 314 314 316 318 319 318 318 319 320 321 323 324 324 323 323 321 321 321 320 321 322 322 321 320 319
294 296 297 298 298 299 302 302 303 304 305 307 308 308 308 307 308 307 306 303 299 301 305 301 299 300 300 303 307 306 307 306 304 312 313 313 303 310 314 309 310 312 313 314 314 314 314 314 314 314 314 316 317 317 317 317 318 319 320 321 322 322 320 319 319 319 319 319 319 321 320 319 318 317
293 294 296 298 298 299 301 302 303 304 305 305 307 308 308 307 307 306 305 302 297 292 294 299 300 301 302 301 304 303 304 304 307 307 310 310 310 313 314 313 306 309 311 313 313 313 313 314 314 313 313 314 316 316 318 318 317 317 319 320 320 321 321 320 320 317 316 318 318 318 317 317 317 317
292 293 294 297 299 299 300 303 303 304 304 304 305 306 306 306 306 307 304 301 298 295 292 296 298 300 304 302 301 304 303 303 301 304 305 308 309 312 313 312 311 307 310 311 312 313 312 313 314 313 312 312 314 315 316 315 314 315 317 316 316 316 318 319 318 316 315 316 317 317 317 316 316 316
291 291 292 295 298 300 300 302 303 304 304 304 305 305 306 306 305 305 304 301 298 295 294 296 296 297 301 302 300 303 304 301 301 302 301 302 304 306 307 309 308 306 309 311 312 311 311 311 312 312 311 311 312 313 313 313 312 313 314 314 314 313 314 314 315 314 314 315 316 317 316 316 316 316
289 290 291 293 296 299 300 302 303 303 304 304 304 304 304 305 303 302 300 302 300 297 294 293 296 298 300 297 301 302 301 298 298 300 296 296 297 295 299 305 303 305 308 309 309 309 309 309 311 310 310 310 311 311 312 311 311 312 311 311 312 312 311 311 312 312 313 314 316 317 316 315 316 316
288 289 290 291 294 297 300 301 302 302 302 303 303 302 302 303 302 300 300 299 299 297 295 294 295 298 296 297 298 298 297 296 295 294 296 297 298 296 294 296 302 302 304 305 305 306 307 308 309 310 309 310 310 311 311 311 310 310 310 309 309 310 310 310 309 309 309 311 312 314 315 315 315 315
288 289 290 291 293 296 298 301 302 302 301 302 303 302 301 301 300 298 297 298 298 298 296 295 292 292 293 293 294 297 298 296 294 292 292 293 293 294 293 293 295 300 302 302 303 302 304 304 307 309 309 309 310 310 310 309 309 307 306 307 307 308 309 309 308 308 308 309 309 310 313 315 315 314
288 289 290 291 293 294 297 301 302 302 301 302 301 301 301 299 299 297 297 297 297 296 294 295 295 293 293 295 294 295 298 298 297 294 292 292 291 294 296 294 293 295 298 299 301 302 302 302 305 306 307 308 309 309 309 308 307 305 304 305 306 307 308 307 307 307 307 307 307 307 308 310 314 313
287 288 288 289 291 294 297 301 303 302 302 302 300 301 300 299 298 297 296 296 295 294 294 294 293 294 293 291 293 293 294 295 294 296 297 296 292 292 292 294 295 294 295 297 296 299 301 301 304 305 306 306 308 307 306 305 304 302 304 305 306 306 306 306 306 306 305 305 306 306 306 307 310 313
286 287 288 289 290 292 292 294 299 300 301 303 300 299 300 298 298 296 295 295 295 294 294 293 294 293 292 292 291 292 294 296 297 297 298 296 293 292 292 292 293 295 296 294 296 296 297 298 300 302 303 305 305 305 304 304 300 301 304 305 306 306 306 306 306 305 304 304 305 306 306 306 306 307
286 287 287 288 288 289 290 291 294 298 299 299 302 301 300 297 296 295 295 296 295 294 293 293 292 292 292 292 293 295 296 299 296 295 296 294 291 292 292 292 290 291 295 295 295 294 295 298 297 299 303 302 302 304 305 305 303 302 304 305 305 305 305 305 305 304 304 304 304 305 305 304 304 305
285 286 287 288 288 289 290 292 293 297 298 298 298 298 298 298 297 295 295 295 294 294 294 293 293 293 293 293 295 297 296 295 296 297 297 295 293 293 292 292 289 289 295 294 294 293 292 297 298 298 300 301 301 301 304 303 301 302 304 304 304 304 304 305 304 304 304 304 304 304 304 304 304 304
286 286 286 287 288 289 291 294 295 296 297 298 298 298 298 297 297 297 297 295 294 294 294 293 294 294 293 294 296 297 296 295 296 296 297 295 294 294 294 294 292 292 293 294 294 293 290 292 298 298 299 299 300 302 304 303 302 303 304 304 304 303 303 304 304 304 303 303 303 303 303 303 303 303
286 286 286 286 288 289 290 291 296 299 298 297 297 297 296 296 297 298 298 298 296 296 295 294 294 295 295 294 296 297 297 296 295 295 295 295 295 295 295 294 292 291 294 295 293 293 291 292 296 297 297 298 299 301 302 303 302 303 304 303 303 303 303 303 303 303 303 303 303 303 303 303 302 301
286 286 286 286 286 287 289 293 296 298 300 299 297 297 298 298 297 296 297 296 296 296 296 295 294 297 298 296 297 296 296 295 295 295 295 294 294 294 294 294 293 293 296 296 294 293 291 290 295 296 295 291 293 294 299 302 302 303 303 303 303 303 302 302 302 302 302 302 302 302 302 302 301 301
286 286 287 286 286 287 288 292 296 298 299 297 296 295 296 297 298 299 299 299 298 298 299 298 298 299 299 300 298 296 296 296 297 297 296 294 294 291 290 290 291 292 295 295 295 293 293 290 294 295 292 290 291 290 297 301 302 303 303 303 303 302 302 302 302 302 302 302 302 302 302 302 301 301
287 287 287 286 286 287 288 291 295 297 298 295 294 294 295 296 298 299 298 298 298 299 300 300 300 300 300 299 297 295 296 296 294 291 291 291 291 292 293 290 290 292 292 290 293 291 291 290 294 292 288 289 290 289 290 299 301 302 302 302 302 302 302 302 301 302 302 302 302 302 302 301 301 301
287 287 287 287 287 287 288 291 295 297 296 294 294 294 294 294 295 296 298 297 297 297 298 298 299 299 299 298 298 298 298 296 294 294 293 292 293 294 292 290 290 291 292 290 289 290 290 289 292 287 287 289 289 289 290 292 299 301 302 302 302 302 301 301 301 301 301 301 302 302 302 301 300 299
286 287 287 287 287 287 288 292 295 297 295 294 293 293 293 293 293 294 296 296 296 296 297 297 297 297 297 297 297 297 297 297 295 295 294 293 294 294 294 290 290 290 290 291 289 291 290 289 289 286 285 287 286 288 288 289 293 299 299 301 301 301 301 301 301 301 301 301 301 302 301 301 300 299
286 286 287 287 287 288 289 292 295 297 295 294 293 293 293 293 293 294 294 293 292 291 291 292 294 293 294 295 295 294 296 295 294 297 296 294 295 295 294 291 289 288 288 291 289 291 288 289 289 288 286 286 284 283 287 288 290 293 296 298 299 299 300 300 300 300 300 301 301 301 301 300 299 298
284 285 286 287 289 290 291 292 295 296 296 294 294 294 294 293 293 294 293 292 293 292 292 292 292 292 292 292 293 293 294 293 293 296 295 295 297 296 293 290 291 291 290 291 289 290 288 290 288 290 292 290 288 286 285 286 288 290 293 294 295 297 298 298 299 300 300 300 300 301 301 300 299 297
284 285 286 287 289 291 292 293 294 296 296 295 293 294 295 294 294 294 293 291 292 292 291 291 291 291 291 291 292 292 293 293 293 294 294 296 298 297 294 291 291 293 290 291 292 291 288 290 289 289 290 287 283 283 284 286 286 287 290 291 293 294 294 295 295 296 298 299 300 300 300 300 300 298
285 286 286 287 289 291 292 293 294 296 296 296 293 295 296 296 295 293 292 292 292 292 291 291 291 291 291 291 291 292 292 292 292 293 293 294 296 296 296 294 293 292 288 291 294 293 290 289 290 289 291 287 279 287 283 285 287 287 288 289 291 291 292 292 292 293 294 295 296 298 299 300 300 299
286 287 287 288 289 290 292 294 295 296 296 295 295 296 296 295 294 293 293 292 292 291 291 291 290 290 291 290 290 290 291 291 291 292 292 293 293 293 294 295 295 296 293 291 291 292 291 290 290 290 290 291 286 283 287 286 284 286 287 289 289 290 291 292 292 292 293 293 294 297 298 299 299 299
287 287 287 288 290 291 292 294 295 296 295 294 296 296 295 294 293 293 292 292 292 290 290 290 290 290 291 291 290 290 291 291 290 291 291 291 291 291 292 291 292 290 291 291 292 292 292 291 290 291 292 291 287 285 285 288 285 285 286 288 288 289 290 291 291 291 291 292 292 293 293 293 295 297
287 288 289 289 290 291 292 294 294 295 295 295 295 295 294 292 293 293 292 292 291 290 290 291 291 291 291 291 291 291 291 290 290 290 289 289 290 289 289 289 287 286 289 290 291 292 292 291 290 290 291 291 290 288 288 286 285 285 286 286 286 287 288 290 290 290 290 291 291 291 292 293 292 293
288 288 289 289 289 290 291 292 293 293 294 294 293 293 293 293 293 293 292 292 291 291 291 291 291 291 290 290 290 290 290 290 289 290 289 289 288 287 287 286 284 284 287 289 290 291 291 290 289 290 290 290 291 288 288 287 284 286 286 286 287 286 287 289 289 289 289 289 289 289 290 292 292 291
287 287 288 288 288 289 291 292 292 293 293 293 293 293 293 293 293 293 293 292 292 292 292 291 291 290 290 289 289 289 289 289 290 290 289 289 288 288 288 288 286 282 284 287 289 290 290 289 288 289 289 289 289 288 287 287 285 284 285 287 287 285 286 288 288 289 289 288 288 288 288 289 289 289
287 287 288 288 288 289 290 292 292 293 293 292 292 293 293 293 292 292 292 292 293 293 293 292 291 289 288 288 288 289 289 289 289 289 289 289 288 288 288 287 286 283 282 284 287 288 288 288 287 288 289 289 288 287 286 286 286 284 284 286 286 287 285 286 287 288 288 288 287 287 287 288 288 288
287 287 287 287 287 288 290 290 291 292 292 292 292 291 292 293 292 292 292 292 292 292 291 290 289 288 288 288 288 288 288 288 288 289 289 288 288 287 288 288 287 283 282 282 284 286 287 287 285 287 288 288 288 287 285 283 284 284 284 284 285 285 284 286 287 287 287 286 286 286 286 287 287 288
287 286 286 287 288 289 290 290 290 291 291 291 291 291 291 292 292 291 291 292 292 291 291 291 290 289 288 288 288 288 288 288 288 288 288 288 288 287 287 287 287 285 285 283 283 285 286 286 283 282 282 282 281 284 286 286 284 283 283 284 284 284 284 284 286 286 287 286 286 284 284 285 286 287
287 287 286 287 289 289 290 290 291 291 291 291 291 291 291 292 291 291 291 292 292 291 291 290 290 289 288 288 288 288 288 287 287 287 288 288 287 287 287 287 287 286 285 284 283 284 285 285 283 281 279 280 281 284 285 285 285 283 283 283 284 284 284 283 285 285 286 286 285 284 284 284 285 286
287 288 288 288 289 290 290 290 290 291 291 291 291 291 291 291 291 291 291 291 292 291 291 290 289 289 288 288 288 288 287 287 287 286 286 287 287 287 287 287 287 287 285 285 283 284 285 284 284 282 281 281 281 281 284 287 286 285 282 282 283 283 284 283 284 284 284 284 285 284 283 282 283 285
287 288 289 289 290 290 290 291 291 291 291 291 291 291 291 291 291 291 292 291 291 291 291 290 290 289 288 288 287 287 287 287 286 286 286 287 287 286 286 286 286 286 285 285 284 284 284 284 284 283 282 281 280 280 282 282 285 286 285 282 282 283 283 282 282 282 284 284 284 284 284 284 283 284
288 289 289 290 290 291 291 291 291 291 291 291 291 291 291 291 291 291 291 291 291 291 290 290 289 289 288 288 287 287 287 287 287 286 286 286 286 286 286 286 286 286 286 285 284 284 284 284 283 283 283 281 280 280 281 275 280 284 286 285 282 282 283 282 281 281 282 284 284 284 284 282 284 284
287 289 289 290 290 291 291 291 291 291 291 291 291 291 291 291 291 291 290 290 290 291 290 290 289 289 288 288 288 288 287 287 287 287 286 286 286 286 286 286 286 286 286 284 283 283 283 284 284 284 284 283 282 283 283 281 280 284 285 287 285 283 283 283 282 282 282 282 283 284 284 283 279 281
271 276 281 288 290 290 291 291 291 291 291 291 291 291 291 290 290 290 290 290 290 290 291 290 289 289 289 289 288 288 288 287 287 287 287 287 287 286 286 286 286 286 285 284 283 283 283 284 285 285 285 286 281 283 285 284 276 278 284 286 287 286 284 284 283 283 282 283 283 282 282 283 282 279
266 267 268 271 280 287 290 290 291 291 291 291 290 290 291 291 291 290 290 290 290 290 290 290 289 289 289 289 289 288 288 288 288 288 287 287 286 286 286 286 286 286 285 284 283 283 283 285 286 287 286 282 280 286 284 282 282 281 281 283 285 287 286 285 285 284 283 284 283 282 282 281 281 281
265 265 266 267 268 269 279 287 289 290 290 290 290 290 290 290 291 290 290 289 290 290 290 290 289 289 289 289 289 288 288 288 288 287 287 287 286 286 286 286 286 286 285 285 284 284 285 285 286 286 286 284 284 284 283 284 284 283 279 280 283 285 287 286 286 286 286 284 283 281 281 278 278 279
265 265 265 266 266 267 268 270 277 286 289 289 290 290 290 290 290 289 290 290 290 289 290 290 290 289 289 289 289 289 289 288 288 288 287 287 287 286 286 286 286 286 286 287 287 285 283 285 286 286 285 284 285 285 284 284 285 281 278 279 280 283 285 286 286 286 286 286 285 285 284 282 279 277
263 264 265 265 266 266 266 267 269 270 277 287 289 289 290 289 289 289 290 290 289 289 290 290 289 289 289 289 289 288 289 289 288 288 287 287 287 287 287 286 287 287 287 287 286 284 283 284 285 285 284 283 284 284 283 284 284 281 279 279 279 281 282 284 285 285 286 286 285 285 286 285 284 282
261 263 264 265 265 265 266 266 266 268 269 271 279 287 288 289 289 289 289 289 289 290 289 289 289 289 289 289 288 288 288 288 288 288 288 288 287 287 287 287 287 286 286 286 286 284 282 283 284 285 284 284 284 284 284 283 284 281 278 279 279 281 282 282 282 282 282 282 284 285 285 285 283 282
Wind_Speed
10 10 10 10 12 14 16 12 11 11 13 16 16 16 19 20 20 14 13 13 11 8 10 13 5 11 13 13 12 15 14 17 20 16 15 16 14 21 26 26 26 24 25 23 22 22 21 20 19 19 18 17 17 16 17 18 18 19 18 20 20 21 22 22 20 18 17 18 17 16 16 17 18 15
10 10 10 9 11 12 15 12 8 8 11 13 15 16 14 17 21 17 17 12 9 12 7 4 9 4 11 11 14 15 14 20 21 15 15 15 15 22 24 25 25 24 23 23 22 21 20 19 19 18 18 17 16 16 17 17 18 20 21 19 20 20 20 19 19 17 15 16 18 17 16 16 17 17
9 11 11 10 10 12 14 12 8 8 8 13 15 15 15 15 18 19 17 15 5 9 13 4 4 13 10 11 12 13 13 19 21 16 15 15 19 24 21 24 24 24 23 22 21 21 20 19 19 19 18 19 19 17 18 19 19 19 18 18 18 19 20 19 18 18 16 15 16 17 17 17 19 20
8 11 12 11 10 11 11 12 10 11 10 11 13 14 13 14 15 16 16 18 15 8 12 11 10 11 12 12 13 12 11 17 22 15 15 16 20 17 15 23 24 23 23 22 21 21 20 19 19 19 19 20 21 19 19 20 20 19 19 19 19 18 20 19 19 19 19 16 15 17 18 17 17 17
8 10 12 12 11 10 12 11 11 11 11 11 12 14 14 14 12 12 15 16 10 4 3 9 12 12 14 11 12 14 13 14 13 15 14 15 15 15 14 16 22 23 23 22 22 21 20 20 19 18 18 18 20 19 20 22 21 19 19 20 19 18 20 20 19 20 19 17 17 17 18 18 17 16
7 9 12 12 11 10 13 13 14 14 13 13 14 13 13 13 13 13 13 14 17 13 4 8 7 12 16 15 13 17 16 16 10 12 12 13 15 14 13 13 14 24 22 22 23 21 20 19 19 19 18 18 19 20 20 21 21 19 19 20 19 19 20 21 20 19 19 18 18 17 17 17 17 15
7 9 11 13 11 9 12 14 15 16 15 14 16 16 14 14 13 12 12 15 15 17 11 11 13 11 12 15 15 16 17 15 13 14 12 13 11 11 12 12 11 20 22 23 22 21 20 20 20 19 18 17 19 20 20 21 21 20 20 20 20 19 19 20 20 20 19 18 17 17 18 18 17 15
7 9 10 12 12 10 12 15 14 14 16 15 14 16 14 15 13 9 10 15 17 15 15 9 14 14 14 6 12 12 13 15 12 13 9 9 10 7 9 13 11 16 23 23 22 21 20 18 18 18 18 17 18 19 19 20 21 21 21 21 20 20 20 20 21 21 20 19 18 16 18 19 18 15
8 9 10 11 11 12 12 14 16 13 18 17 16 15 12 13 12 9 11 12 14 16 17 13 7 10 7 9 12 14 14 10 9 8 13 13 13 11 7 7 11 17 21 22 22 21 19 19 18 17 17 17 18 19 19 20 21 21 21 21 21 21 20 20 20 20 20 19 18 17 18 19 17 16
7 9 10 10 11 12 13 15 15 17 18 16 17 17 14 13 12 12 11 13 14 17 17 17 11 6 10 9 10 13 16 14 12 8 7 8 9 10 7 6 7 8 10 10 12 14 17 17 18 17 16 17 18 19 20 20 21 22 22 22 21 21 21 21 21 21 20 19 18 18 19 20 16 18
7 8 9 11 11 12 14 15 17 17 19 16 17 18 17 13 14 13 13 14 15 14 15 14 18 14 7 15 15 10 14 17 16 16 12 9 5 9 13 10 3 5 7 10 15 14 12 13 12 15 17 18 19 20 21 21 21 22 23 23 22 22 21 21 21 21 20 20 19 18 18 19 18 19
8 8 9 11 12 13 14 14 15 18 18 17 15 14 14 15 16 14 13 14 14 13 14 14 12 14 12 1 6 10 10 12 9 12 15 17 12 10 8 8 12 5 8 8 6 8 11 12 14 16 17 18 19 20 20 22 22 23 23 23 23 23 22 22 21 21 20 20 19 19 19 19 18 20
9 9 9 10 12 13 17 21 18 18 20 17 16 14 14 15 16 14 14 14 14 14 14 13 13 12 12 12 13 14 14 18 19 15 14 12 7 8 8 3 1 7 10 6 8 8 8 8 7 7 8 10 16 18 21 19 24 23 23 24 24 23 23 22 22 21 21 20 20 20 19 18 18 19
9 10 9 10 15 18 20 22 21 23 23 22 19 18 17 17 16 17 16 16 15 16 15 15 14 15 14 15 18 19 18 13 11 12 13 14 10 9 7 3 1 3 9 11 10 7 6 9 8 9 11 9 12 10 12 12 16 21 25 25 24 23 23 23 22 22 21 21 20 20 19 19 18 18
10 9 9 9 12 14 16 16 19 24 26 24 22 24 24 21 20 18 19 17 18 18 17 16 17 18 19 19 19 18 16 13 18 18 15 15 14 16 16 14 2 3 8 8 8 6 4 8 10 9 9 10 10 10 13 19 23 24 24 24 24 24 23 23 22 22 22 21 20 20 20 20 18 19
9 9 9 8 9 11 12 13 12 20 26 26 25 26 26 27 28 27 22 19 17 18 17 17 19 19 20 19 17 16 17 16 14 15 15 16 18 16 16 13 13 7 8 10 9 7 3 4 9 10 10 10 11 13 17 22 22 23 24 24 24 24 23 23 22 22 22 21 21 20 21 20 19 19
9 8 8 9 9 10 16 15 13 14 20 25 28 28 28 27 27 28 30 29 24 18 20 21 20 20 20 20 18 20 21 19 19 16 16 16 16 15 16 12 9 9 11 10 10 11 5 5 9 9 9 10 10 12 16 20 21 22 24 24 24 23 23 22 22 22 22 21 21 21 21 21 20 20
10 9 9 9 10 9 11 12 13 14 17 19 20 22 20 19 22 24 25 28 29 26 20 20 21 18 20 22 21 18 19 22 21 19 19 17 16 16 15 10 9 9 11 14 10 6 6 6 9 11 7 5 6 7 11 19 22 23 24 23 23 23 23 23 22 22 22 22 21 21 21 21 21 21
11 10 9 9 9 10 12 12 13 13 15 17 17 17 18 19 19 19 19 20 20 19 18 22 21 18 19 21 20 16 17 23 21 20 19 17 12 9 10 9 6 9 10 8 13 14 11 6 9 9 7 6 5 4 8 17 20 22 23 23 23 23 23 22 22 22 22 22 22 22 21 21 21 21
10 10 9 9 9 11 13 16 19 17 14 16 20 20 18 17 17 17 19 23 24 22 19 19 20 19 18 15 20 21 18 14 11 12 12 12 12 13 12 10 7 11 8 4 7 5 9 8 11 7 4 5 7 4 4 10 17 19 21 22 22 23 22 22 22 22 22 22 22 22 22 21 21 21
11 10 10 9 10 11 13 16 19 20 20 15 20 20 19 17 15 15 14 19 22 24 23 22 24 24 23 23 26 29 28 20 17 16 16 16 16 16 14 10 10 11 10 6 5 6 10 8 7 6 3 6 6 6 6 5 13 17 17 19 21 22 22 22 23 23 23 23 22 22 22 21 21 21
10 11 15 13 11 12 14 17 18 21 19 17 19 19 20 18 17 15 12 11 11 18 23 25 23 23 24 25 24 25 27 28 23 21 22 20 17 18 17 16 13 8 8 8 6 9 9 9 6 8 4 4 1 4 4 4 6 12 13 17 19 21 22 23 23 23 23 24 23 22 23 22 20 15
8 9 11 16 15 15 16 22 19 21 19 16 18 19 19 19 19 17 15 15 13 8 5 5 12 14 18 18 17 17 24 27 25 22 21 16 17 17 15 13 10 8 9 11 9 10 8 13 9 11 7 5 1 1 4 5 5 7 9 11 13 19 22 23 23 24 23 23 23 23 23 22 20 11
9 10 10 12 18 21 23 24 21 21 24 17 17 18 18 19 21 15 15 16 15 14 14 12 13 15 15 15 15 16 17 19 19 17 17 19 18 17 15 15 18 17 12 9 9 5 4 10 11 9 11 12 9 6 5 6 6 6 7 8 8 15 19 20 19 23 23 23 24 24 24 24 22 13
10 10 10 9 14 19 21 22 21 22 26 22 18 19 20 21 18 17 14 16 19 14 13 14 13 11 11 12 13 16 16 16 15 13 16 20 20 19 17 16 16 11 8 15 20 9 10 11 11 10 5 2 3 7 4 4 3 4 5 7 10 9 9 10 8 12 18 23 24 25 25 25 27 18
10 10 9 8 10 16 19 20 21 24 26 26 17 20 23 21 23 19 15 14 12 12 13 13 13 12 12 13 13 14 14 14 13 11 12 14 14 15 17 19 17 12 9 14 27 17 12 11 15 15 10 8 3 7 8 8 8 8 5 5 6 7 9 9 8 9 9 11 13 18 20 26 25 24
10 8 8 9 14 17 18 20 21 24 28 25 19 25 21 24 28 22 14 14 14 12 13 14 14 14 14 15 15 15 14 14 14 13 12 12 11 10 10 15 16 16 12 15 18 15 14 13 13 16 15 12 10 7 11 11 7 7 7 9 9 8 9 9 11 10 10 10 10 17 19 21 22 24
9 9 9 9 14 17 19 21 23 26 27 21 25 24 24 26 25 16 15 15 15 15 14 15 15 16 15 15 15 15 15 15 14 12 11 11 11 10 9 9 8 4 11 21 24 20 17 14 16 18 20 18 15 15 14 8 6 12 14 9 8 8 8 9 10 11 11 10 9 11 11 12 15 17
10 11 13 14 16 17 18 21 23 24 28 29 22 26 26 24 14 15 16 16 15 15 15 16 17 16 16 16 15 13 12 11 10 8 6 7 8 5 5 5 5 6 9 11 14 16 15 13 17 15 13 15 17 14 13 15 13 13 14 15 13 12 11 11 11 12 11 11 12 12 14 14 15 15
16 16 16 18 19 19 18 15 14 14 17 24 22 25 25 16 15 15 15 16 17 17 17 17 16 14 11 10 10 12 13 13 14 14 13 10 9 8 8 8 5 3 6 12 15 16 14 11 12 16 17 14 13 13 14 13 12 13 14 15 12 3 7 10 11 9 11 13 13 14 13 14 14 13
14 15 16 13 15 14 17 17 17 18 19 18 17 14 15 15 15 15 16 18 20 19 16 14 11 9 9 8 10 11 12 14 13 13 13 13 12 11 8 10 8 4 4 8 12 14 13 10 9 13 15 13 11 11 12 11 13 12 14 15 15 18 17 16 15 15 15 13 12 11 10 11 10 12
11 11 11 14 12 12 12 13 11 11 11 12 12 12 13 13 14 17 22 20 15 14 13 11 10 10 11 12 13 13 13 12 12 12 12 13 13 12 11 10 11 7 6 6 9 11 12 10 8 11 13 14 17 12 9 12 14 15 14 15 16 11 6 18 17 15 14 13 12 13 13 13 14 13
9 9 10 9 11 11 11 9 10 10 10 11 12 14 14 13 13 13 12 13 12 12 12 13 15 15 15 14 12 13 13 12 13 13 12 11 12 11 11 14 12 10 11 9 9 10 11 9 4 8 10 7 8 11 15 13 10 10 13 14 14 14 10 12 13 14 12 12 14 12 12 13 14 15
9 10 10 10 10 11 10 10 10 11 11 13 13 12 15 14 13 13 14 14 14 13 15 16 15 15 14 13 14 14 14 12 12 14 15 13 13 14 15 14 11 11 12 11 11 12 12 10 5 4 4 3 1 5 11 13 15 12 12 12 13 14 11 9 12 13 16 17 16 13 14 14 14 13
11 10 11 10 11 11 10 10 11 12 13 15 15 15 15 14 16 17 15 14 13 14 15 15 15 16 17 17 16 16 15 15 14 12 11 12 14 15 15 15 14 13 13 12 11 10 11 11 9 7 5 5 5 9 8 8 8 11 10 12 14 14 13 11 13 13 16 13 11 16 17 15 15 16
11 10 11 11 11 11 11 11 11 11 13 14 15 14 14 14 14 16 15 15 15 15 14 15 15 15 15 15 15 15 14 14 14 14 14 13 14 12 12 14 15 14 13 13 13 12 13 14 14 14 15 13 12 13 15 18 16 10 14 13 11 11 11 10 11 12 13 14 15 16 16 19 19 14
10 10 10 11 10 11 12 11 11 12 13 13 14 14 15 15 14 14 15 16 14 14 14 14 14 14 13 13 13 13 14 15 15 15 16 15 14 14 14 13 13 12 12 12 11 12 12 14 15 15 15 14 15 19 16 5 16 16 12 11 10 10 11 10 10 12 14 16 16 16 18 15 13 13
9 9 11 11 10 10 10 10 10 11 11 12 13 13 13 13 13 13 11 12 13 11 12 12 12 14 14 14 15 14 14 15 14 15 15 15 15 15 16 16 14 12 12 11 11 12 12 14 16 17 17 19 19 18 13 4 8 13 18 14 13 12 11 12 14 17 17 14 16 16 9 9 12 7
3 7 10 9 9 9 9 9 11 12 12 12 13 13 13 12 12 12 13 14 14 13 12 12 12 13 15 15 15 16 15 14 14 15 15 16 16 16 15 13 13 11 11 12 11 12 12 14 17 18 18 18 20 17 13 12 14 12 14 23 18 16 16 18 18 14 11 13 13 8 8 5 6 3
9 10 8 4 6 8 7 8 9 9 11 11 12 12 12 13 13 14 14 14 14 14 14 14 14 13 13 14 14 14 14 18 18 15 15 15 15 14 14 14 14 14 13 14 13 14 17 19 19 19 18 10 3 6 7 5 3 2 11 21 28 20 17 14 14 14 14 12 9 9 12 9 11 4
11 11 10 9 8 3 4 6 7 9 10 10 11 11 12 12 13 14 13 14 13 14 13 13 13 15 15 15 15 16 16 15 15 14 15 15 16 16 17 16 13 14 16 17 18 17 20 20 15 12 8 5 4 6 7 5 9 10 11 11 17 19 17 18 15 13 13 12 12 14 14 14 14 8
11 9 9 11 10 9 9 2 3 6 7 9 10 11 12 12 12 16 16 16 16 15 14 13 13 13 13 13 14 14 15 15 14 14 14 14 14 14 16 16 16 16 18 18 19 18 11 6 10 13 12 9 8 10 14 15 15 8 8 7 10 18 19 19 20 14 10 10 13 11 9 2 3 8
12 10 11 12 11 11 10 9 8 3 4 7 8 10 11 11 11 12 11 13 13 13 13 12 13 13 13 13 13 14 14 14 14 14 14 15 15 16 16 17 17 16 16 13 8 7 9 12 12 12 12 13 15 15 17 16 10 6 7 8 10 10 12 16 16 17 14 14 17 15 13 11 10 10
10 13 11 11 11 10 10 12 10 8 8 1 6 8 9 10 11 12 13 13 13 13 13 13 13 14 14 13 13 13 13 13 14 15 15 15 16 16 16 16 14 13 12 10 9 8 8 10 12 13 13 15 14 13 17 12 8 7 7 6 5 9 12 11 9 9 11 13 15 15 13 12 8 6
11 13 13 14 12 11 10 11 11 11 10 9 7 2 3 7 9 10 10 11 12 12 13 13 13 13 13 13 13 14 14 13 13 12 12 12 12 12 12 13 13 13 13 12 12 10 9 11 11 12 13 13 11 13 13 8 8 5 6 8 10 9 9 9 12 13 11 9 6 10 15 15 8 7
Wind_Direction
269 263 256 254 263 271 269 246 217 202 179 165 169 174 170 165 156 162 164 178 158 189 173 156 212 174 165 162 160 156 159 163 164 165 162 164 168 172 169 169 170 174 174 176 177 179 179 179 177 174 172 168 172 176 174 171 164 163 165 164 163 161 161 166 167 164 156 151 150 153 157 162 162 161
271 263 255 250 256 260 264 241 221 200 175 166 169 175 179 168 162 165 168 175 175 160 172 168 150 175 165 164 164 161 163 162 164 163 162 165 169 171 169 169 170 172 172 175 176 175 174 175 171 168 167 169 176 178 174 166 162 164 171 172 165 159 155 158 157 153 150 150 154 159 160 159 153 158
273 267 255 248 249 255 258 233 203 191 183 175 170 175 171 177 172 168 170 160 187 161 164 155 166 158 161 163 163 161 159 165 166 163 165 168 168 167 168 169 170 171 171 174 175 174 173 172 171 170 169 172 177 178 169 163 164 169 172 166 162 158 150 154 156 154 153 152 154 157 158 157 161 171
269 274 268 253 247 254 255 232 200 188 181 178 171 171 175 182 182 171 167 167 163 183 165 150 148 155 148 155 159 157 159 168 168 163 164 166 162 164 168 170 170 171 171 174 175 174 174 174 173 174 173 175 177 175 167 167 169 170 168 164 163 159 150 152 155 155 155 159 161 159 160 163 165 167
270 273 271 264 251 251 253 231 204 185 181 181 182 177 173 176 177 176 168 160 135 51 87 139 152 158 147 153 161 153 155 166 171 164 162 161 165 168 168 170 171 171 173 173 174 176 177 177 176 176 177 178 180 176 168 168 170 167 164 162 161 159 153 153 155 155 156 160 162 161 161 161 162 169
267 274 276 270 255 245 252 239 208 181 180 184 183 181 178 177 177 179 164 154 154 150 116 127 141 155 166 155 167 157 159 165 160 161 160 164 168 167 164 166 172 172 172 172 173 175 177 178 178 181 178 180 181 177 167 164 166 164 163 160 158 159 158 155 155 155 156 160 162 158 157 159 164 169
267 273 275 277 270 245 249 239 215 185 179 182 185 184 182 184 179 171 160 152 154 150 152 150 152 162 172 163 169 167 162 158 157 153 160 160 167 165 161 164 167 173 171 172 173 175 179 177 178 181 178 177 178 173 166 164 165 163 160 158 158 160 160 158 155 156 157 161 164 160 158 160 166 172
267 269 277 278 279 267 252 239 219 196 177 181 188 185 184 180 173 163 153 161 152 157 141 168 160 167 161 171 160 154 149 149 154 157 149 146 147 149 163 162 162 176 173 173 175 175 177 177 175 178 177 176 175 169 167 165 164 162 160 159 161 162 162 159 157 158 159 162 164 160 161 164 172 174
267 271 271 276 278 279 262 243 212 197 184 180 179 181 183 177 167 157 154 155 151 151 155 152 152 156 145 148 156 150 145 146 135 136 154 163 160 159 163 151 169 169 176 174 173 176 175 175 178 176 175 175 173 169 168 167 165 162 160 160 161 163 162 160 159 159 159 162 164 162 162 167 175 171
262 271 273 274 274 272 266 246 215 192 186 183 177 178 180 172 161 156 153 150 158 156 155 149 139 154 145 142 156 163 150 150 142 138 138 136 147 150 147 171 165 174 169 169 174 172 172 172 176 174 177 175 174 169 168 168 166 162 160 160 162 163 163 162 160 160 161 163 165 166 168 173 166 165
259 266 272 274 270 268 265 252 215 196 181 183 183 177 174 168 161 158 155 154 153 152 150 158 155 154 176 160 156 173 162 158 158 153 145 157 162 166 164 161 142 159 155 181 169 165 163 168 172 178 177 178 175 172 168 168 166 163 162 162 163 164 164 163 162 162 162 164 167 170 173 178 169 168
251 258 266 271 271 269 270 261 223 196 182 178 180 179 169 166 162 159 155 151 150 152 154 155 159 154 149 99 119 134 143 142 148 162 162 169 171 174 166 164 156 175 156 159 161 154 156 164 175 178 180 179 177 172 168 168 167 165 164 164 165 165 165 165 164 164 164 166 169 172 176 182 178 169
249 253 260 265 270 270 274 271 240 207 182 174 176 173 168 166 162 158 157 156 154 156 156 156 153 152 151 152 148 152 163 171 174 175 163 157 154 140 133 92 202 170 161 166 145 157 158 148 164 162 171 184 177 175 171 171 169 168 167 167 167 167 167 167 167 167 168 169 171 174 178 184 184 174
249 253 259 267 274 277 277 278 259 212 185 178 176 170 171 168 164 162 161 161 160 157 159 159 157 156 165 163 170 170 178 168 132 144 155 151 154 145 133 104 183 224 159 154 161 165 165 155 163 167 176 182 176 174 172 172 173 174 171 169 168 169 169 170 170 170 170 171 174 177 179 183 184 176
255 256 259 270 281 282 281 277 259 219 187 179 178 173 171 171 167 164 164 165 163 162 164 165 165 170 171 176 174 172 158 157 163 170 166 158 160 167 167 180 199 274 167 150 142 154 189 155 161 175 178 173 176 176 182 180 179 176 171 169 170 171 172 173 172 172 172 174 176 179 180 182 183 177
252 259 265 270 279 278 279 277 254 220 194 178 179 177 176 175 171 168 167 164 166 165 162 167 176 172 175 174 172 165 160 169 163 164 162 166 173 174 178 172 177 179 163 144 152 160 181 174 162 172 186 176 178 185 184 181 177 176 173 172 172 173 173 173 174 174 175 177 178 180 181 182 181 178
251 255 264 274 273 278 283 277 248 222 197 180 178 179 178 178 177 175 171 166 166 169 165 172 177 179 171 170 180 173 171 161 163 167 172 173 176 175 175 170 142 154 172 145 150 166 184 167 169 178 188 183 183 187 185 177 177 178 176 174 174 173 174 174 176 177 178 179 180 180 181 181 180 179
250 250 255 264 274 281 285 273 248 218 200 181 178 176 176 178 180 178 175 172 166 165 169 171 178 186 171 177 178 174 159 160 169 172 178 174 171 174 175 150 148 153 166 162 148 142 183 193 172 187 173 152 164 178 182 179 179 180 178 176 174 175 175 176 177 178 179 181 181 181 181 181 180 180
247 244 244 249 260 274 276 273 245 213 200 180 172 175 176 177 179 180 181 177 172 173 174 176 179 176 185 174 161 160 174 172 172 175 171 165 155 120 84 75 112 160 192 161 151 181 180 172 176 184 157 158 163 163 188 186 185 183 180 177 176 176 177 177 178 179 181 182 183 183 182 181 181 181
239 239 234 243 252 260 267 269 243 214 191 180 172 177 178 177 179 185 187 181 178 177 177 177 169 172 177 169 165 166 171 160 123 89 82 87 111 127 144 149 156 175 200 204 167 129 164 176 175 156 132 141 160 162 176 192 189 189 183 180 178 177 177 179 179 181 182 183 185 185 184 183 182 181
236 232 231 234 251 254 262 261 245 217 185 180 176 175 175 176 178 189 188 189 183 175 173 173 173 169 165 168 171 167 162 153 140 133 139 158 159 158 159 156 163 191 179 208 150 127 154 172 165 126 137 155 154 167 182 188 193 191 189 183 180 178 179 180 181 183 183 185 186 186 185 184 182 181
230 232 231 233 242 252 254 260 244 217 190 179 176 172 170 174 180 185 176 174 196 192 178 174 170 162 163 165 169 167 161 153 152 156 169 172 165 171 171 170 178 152 177 193 158 136 173 150 143 120 88 83 56 172 175 176 189 190 192 190 185 183 183 182 184 184 185 186 186 186 185 184 180 179
228 233 237 234 239 243 252 257 249 212 193 182 173 170 170 175 181 181 169 171 165 156 139 157 153 155 159 158 159 164 163 162 167 173 169 157 168 173 171 154 135 147 208 196 170 154 151 159 174 145 121 167 239 153 185 178 188 188 183 190 194 192 186 187 186 186 186 186 186 187 186 183 177 181
234 237 237 238 238 243 247 251 246 213 194 185 176 168 174 178 185 171 166 168 164 164 161 156 160 161 159 158 159 161 166 173 178 176 162 166 175 171 163 165 173 182 181 165 164 142 132 164 165 190 173 155 185 187 166 194 196 196 184 184 189 197 194 189 189 189 187 188 189 188 187 184 181 182
238 238 237 236 239 242 246 243 239 212 197 188 176 177 180 186 171 152 159 162 156 153 151 151 153 151 154 162 165 166 171 177 180 171 172 178 177 171 167 170 182 179 153 169 170 146 161 178 175 171 196 135 82 119 174 167 194 203 197 190 188 191 186 192 188 192 193 191 191 191 190 187 186 186
234 237 237 240 242 248 244 238 231 211 198 191 182 188 185 163 143 156 156 153 153 152 151 152 153 155 159 163 169 174 176 176 176 177 177 181 181 175 169 171 174 173 169 175 171 174 151 179 177 174 180 153 147 146 139 190 191 190 189 201 196 189 183 182 186 189 190 194 197 195 194 192 192 190
235 237 238 242 249 252 248 236 223 209 199 191 192 187 169 153 159 158 153 153 153 153 156 156 160 166 168 170 173 175 177 177 176 175 175 176 178 177 180 178 175 177 162 160 184 183 170 174 173 174 176 181 157 162 176 174 187 179 193 198 195 189 190 183 186 187 190 193 195 197 196 196 194 194
233 235 234 243 250 250 245 232 217 206 200 197 193 175 164 165 160 150 151 157 159 158 160 164 167 174 177 175 174 177 175 171 174 171 167 172 176 174 174 184 189 155 157 173 180 184 180 169 178 188 176 171 174 177 186 185 152 175 192 189 195 197 192 189 187 188 191 189 184 193 190 194 198 198
232 232 237 247 252 256 248 229 213 203 200 199 189 172 169 162 156 158 159 161 159 162 169 175 178 179 180 178 176 165 158 153 149 149 153 165 172 152 142 150 133 133 151 172 180 185 183 177 181 179 182 185 181 186 169 180 177 184 184 174 198 198 190 195 194 193 189 188 192 191 197 195 198 200
235 237 239 242 247 255 251 225 209 201 199 194 183 177 164 160 167 166 164 161 165 175 181 182 179 177 168 163 152 152 153 155 170 172 168 161 168 154 147 137 135 94 152 171 181 188 189 184 179 178 183 188 191 178 182 163 179 184 179 191 193 116 210 196 196 191 186 195 196 197 203 202 203 192
238 236 233 234 238 243 241 222 203 199 192 184 180 177 168 170 171 172 170 172 178 180 177 175 169 154 149 133 135 155 165 173 175 172 165 169 173 168 163 169 163 127 163 178 183 188 191 183 171 181 183 187 188 188 180 174 177 173 193 193 168 187 192 186 195 195 195 194 194 201 202 205 205 203
229 230 232 235 240 245 243 218 204 195 183 178 176 171 174 177 176 178 179 180 178 171 169 160 145 138 146 158 168 169 174 175 169 169 170 171 168 171 164 170 186 169 141 173 187 194 193 187 171 187 196 182 187 187 165 184 185 184 184 188 197 201 132 190 192 195 188 183 190 200 201 200 203 203
211 211 218 221 226 232 224 203 194 182 167 172 176 174 179 177 177 179 176 176 175 164 154 157 160 165 169 170 166 166 170 174 171 172 173 174 167 169 176 187 179 167 170 174 181 186 190 190 169 184 197 209 213 179 173 186 200 181 185 188 191 196 188 189 188 188 172 184 203 198 202 209 209 206
201 201 207 212 216 215 208 195 183 173 165 168 173 182 180 177 176 178 181 181 174 167 169 170 167 164 163 163 169 173 174 171 172 176 175 172 172 171 184 190 185 181 181 175 176 182 182 179 140 148 185 235 310 214 204 195 187 180 186 179 187 198 191 174 191 183 184 194 190 192 211 215 212 210
204 199 201 210 210 209 202 192 181 172 174 174 177 181 182 181 178 179 181 181 172 172 173 171 170 168 170 172 173 174 174 170 170 173 180 174 175 183 184 186 187 180 183 179 179 175 170 171 156 147 155 207 247 265 233 213 189 188 173 185 187 190 184 182 183 186 193 198 192 205 211 210 211 209
204 201 201 202 202 196 197 191 178 177 178 180 180 177 178 184 183 179 181 178 175 178 176 174 173 172 174 172 171 172 170 168 168 172 177 182 186 186 185 191 188 183 182 184 179 172 172 175 173 178 184 190 202 218 235 212 193 180 179 189 187 187 187 172 185 191 192 199 200 204 207 211 214 204
201 202 205 201 198 194 196 188 181 181 180 179 180 178 181 181 183 184 179 171 178 179 178 174 172 170 170 167 168 169 170 172 175 176 181 182 180 180 184 193 192 184 179 185 173 174 173 177 183 184 188 191 199 213 218 116 199 202 179 176 173 184 174 171 174 194 206 202 205 206 213 214 215 208
202 201 201 199 197 199 194 185 181 178 179 179 178 180 182 180 173 172 161 170 181 180 175 174 172 167 169 168 169 173 177 180 175 176 181 179 179 187 189 186 187 184 181 171 170 182 185 182 184 190 188 194 201 210 204 204 189 206 195 173 170 174 177 176 190 202 205 200 208 212 209 225 228 216
288 212 198 201 201 192 190 188 182 181 178 178 178 178 178 175 170 165 171 180 181 179 175 175 175 173 171 172 175 173 175 175 180 185 184 185 187 185 183 181 182 183 170 174 175 181 187 197 194 195 195 198 204 205 190 178 202 194 181 183 178 173 186 190 199 201 191 198 211 199 218 218 56 84
356 2 355 296 207 188 193 184 183 181 177 177 177 177 174 173 171 175 180 181 179 180 178 178 174 173 175 174 174 176 178 182 184 182 183 186 188 186 184 183 181 177 177 181 181 188 194 202 198 196 198 188 108 108 135 155 51 107 196 204 194 185 192 186 193 188 198 201 174 180 212 201 223 213
9 11 2 349 345 347 188 177 183 176 177 173 171 172 175 175 175 180 181 179 180 179 181 179 175 176 178 177 178 178 182 187 188 184 184 185 184 186 186 180 182 183 186 191 192 194 202 206 196 170 147 112 141 84 77 137 203 198 197 202 207 208 193 188 195 187 197 181 177 196 202 201 211 196
13 9 8 8 360 347 347 15 150 169 171 170 169 171 176 178 184 180 179 180 180 182 180 178 177 180 181 180 180 182 186 185 185 187 186 185 184 187 185 184 189 190 193 196 195 202 194 128 138 162 176 157 154 179 206 207 215 184 163 184 192 211 207 195 201 201 188 163 177 195 195 148 114 209
12 14 13 13 9 6 3 356 350 353 167 166 175 175 175 179 178 177 177 180 183 183 185 179 178 179 180 180 183 186 186 187 187 187 184 185 185 184 188 194 198 194 197 200 177 135 139 162 166 168 175 186 198 198 212 214 205 155 168 166 187 188 206 209 199 204 199 193 199 201 190 182 155 212
4 16 13 10 7 8 7 7 1 355 348 319 178 173 177 177 179 181 183 183 184 185 184 181 180 182 182 181 182 187 191 189 186 185 186 188 189 190 192 193 192 191 193 186 169 160 141 147 168 176 182 198 200 200 217 207 187 183 173 156 148 167 192 194 195 200 215 215 209 212 212 209 219 64
357 13 16 17 14 14 9 8 13 12 7 0 0 25 171 176 183 182 184 184 186 186 183 184 183 184 184 181 180 186 193 189 186 188 186 186 187 190 192 189 189 191 190 185 179 168 159 164 172 178 195 207 202 207 213 193 195 168 156 164 174 178 173 170 183 197 201 211 212 208 211 211 184 120